EW1049 Weather Reports


Display with metric or nautical units.
time (UTC)temp
F
wind
direction
speed
MPH
gust
MPH
rain 1hr
in
rain 24hr
in
rain mn
in
humidity
%
barometer
mb
20220706153010 90 91 0.0 2.0 0.00 0.00 0.00 59 1014.3
20220706152516 90 128 0.0 2.0 0.00 0.00 0.00 60 1014.3
20220706152022 89 150 0.0 2.0 0.00 0.00 0.00 60 1014.3
20220706151528 89 174 0.0 2.0 0.00 0.00 0.00 61 1014.3
20220706151032 88 101 0.0 1.0 0.00 0.00 0.00 63 1014.4
20220706150538 88 145 0.0 1.0 0.00 0.00 0.00 63 1014.3
20220706150046 88 115 0.0 1.0 0.00 0.00 0.00 64 1014.4
20220706145551 87 208 0.0 1.0 0.00 0.00 0.00 64 1014.5
20220706145056 87 102 0.0 2.0 0.00 0.00 0.00 65 1014.5
20220706144507 86 123 0.0 2.0 0.00 0.00 0.00 66 1014.4
20220706144008 86 106 0.0 1.0 0.00 0.00 0.00 67 1014.4
20220706143515 86 154 0.0 1.0 0.00 0.00 0.00 69 1014.4
20220706143020 85 56 0.0 1.0 0.00 0.00 0.00 70 1014.3
20220706142533 85 132 0.0 1.0 0.00 0.00 0.00 71 1014.5
20220706142034 84 141 0.0 1.0 0.00 0.00 0.00 71 1014.5
20220706141545 84 162 0.0 1.0 0.00 0.00 0.00 72 1014.6
20220706141045 83 45 0.0 1.0 0.00 0.00 0.00 75 1014.6
20220706140550 82 91 0.0 1.0 0.00 0.00 0.00 77 1014.5
20220706140055 82 149 0.0 1.0 0.00 0.00 0.00 77 1014.5
20220706135601 81 84 0.0 1.0 0.00 0.00 0.00 78 1014.6
20220706135504 81 181 0.0 1.0 0.00 0.00 0.00 78 1014.6
20220706135006 81 133 0.0 1.0 0.00 0.00 0.00 79 1014.5
20220706134514 80 110 0.0 1.0 0.00 0.00 0.00 82 1014.4
20220706134021 79 170 0.0 3.0 0.00 0.00 0.00 83 1014.5
20220706133526 79 193 0.0 3.0 0.00 0.00 0.00 85 1014.4
20220706133033 78 165 0.0 3.0 0.00 0.00 0.00 85 1014.3
20220706132538 78 225 0.0 3.0 0.00 0.00 0.00 87 1014.2
20220706132041 78 91 0.0 1.0 0.00 0.00 0.00 88 1014.2
20220706131550 77 159 0.0 1.0 0.00 0.00 0.00 89 1014.3
20220706131057 77 159 0.0 0.0 0.00 0.00 0.00 90 1014.3
20220706131006 77 160 0.0 0.0 0.00 0.00 0.00 90 1014.3
20220706130510 77 200 0.0 0.0 0.00 0.00 0.00 90 1014.3
20220706130030 77 190 0.0 0.0 0.00 0.00 0.00 90 1014.3
20220706125526 77 142 0.0 1.0 0.00 0.00 0.00 90 1014.2
20220706125037 76 190 0.0 2.0 0.00 0.00 0.00 90 1014.1
20220706124539 76 140 0.0 2.0 0.00 0.00 0.00 90 1014.2
20220706124044 76 136 1.0 2.0 0.00 0.00 0.00 90 1014.2
20220706123546 76 155 0.0 3.0 0.00 0.00 0.00 90 1014.2
20220706123056 76 127 0.0 3.0 0.00 0.00 0.00 90 1014.2
20220706122556 76 201 0.0 0.0 0.00 0.00 0.00 91 1014.3
20220706122004 76 160 0.0 0.0 0.00 0.00 0.00 91 1014.2
20220706121506 0 0.0 0.0 0.00 0.00 0.00 1014.3
20220706121017 0 0.0 0.0 0.00 0.00 0.00 1014.3
20220706120523 0 0.0 0.0 0.00 0.00 0.00 1014.1
20220706120034 0 0.0 0.0 0.00 0.00 0.00 1014.2
20220706115054 0 0.0 0.0 0.00 0.00 0.00 1014.1
20220706114613 0 0.0 0.0 0.00 0.00 0.00 1014.2
20220706114502 0 0.0 0.0 0.00 0.00 0.00 1014.1
20220706114016 0 0.0 0.0 0.00 0.00 0.00 1014.1
20220706113509 0 0.0 0.0 0.00 0.00 0.00 1014.1
20220706112548 0 0.0 0.0 0.00 0.00 0.00 1014.1
20220706112052 0 0.0 0.0 0.00 0.00 0.00 1014.0
20220706111601 0 0.0 0.0 0.00 0.00 0.00 1013.9
20220706111110 0 0.0 0.0 0.00 0.00 0.00 1013.7
20220706110040 0 0.0 0.0 0.00 0.00 0.00 1013.7
20220706105545 0 0.0 0.0 0.00 0.00 0.00 1013.8
20220706105054 0 0.0 0.0 0.00 0.00 0.00 1013.8
20220706104600 0 0.0 0.0 0.00 0.00 0.00 1013.7
20220706104135 0 0.0 0.0 0.00 0.00 0.00 1013.8
20220706103524 0 0.0 0.0 0.00 0.00 0.00 1013.7
20220706103032 0 0.0 0.0 0.00 0.00 0.00 1013.6
20220706102536 0 0.0 0.0 0.00 0.00 0.00 1013.4
20220706102050 0 0.0 0.0 0.00 0.00 0.00 1013.2
20220706101012 0 0.0 0.0 0.00 0.00 0.00 1013.2
20220706100525 0 0.0 0.0 0.00 0.00 0.00 1013.2
20220706100030 0 0.0 0.0 0.00 0.00 0.00 1013.2
20220706095547 0 0.0 0.0 0.00 0.00 0.00 1013.1
20220706094538 74 70 0.0 0.0 0.00 0.00 0.00 91 1013.4
20220706094039 75 70 0.0 0.0 0.00 0.00 0.00 91 1013.3
20220706093553 75 70 0.0 0.0 0.00 0.00 0.00 91 1013.2
20220706093056 75 70 0.0 0.0 0.00 0.00 0.00 91 1013.1
20220706093006 75 69 0.0 0.0 0.00 0.00 0.00 91 1013.2
20220706092510 75 69 0.0 0.0 0.00 0.00 0.00 91 1013.2
20220706092026 76 70 0.0 0.0 0.00 0.00 0.00 90 1013.0
20220706091525 76 70 0.0 0.0 0.00 0.00 0.00 90 1013.1
20220706091040 76 70 0.0 0.0 0.00 0.00 0.00 90 1013.1
20220706090544 76 70 0.0 1.0 0.00 0.00 0.00 90 1013.1
20220706090058 76 70 0.0 1.0 0.00 0.00 0.00 90 1013.2
20220706085505 76 59 0.0 1.0 0.00 0.00 0.00 89 1013.2
20220706085013 76 59 0.0 1.0 0.00 0.00 0.00 89 1013.3
20220706084514 77 141 0.0 0.0 0.00 0.00 0.00 89 1013.3
20220706084024 77 136 0.0 1.0 0.00 0.00 0.00 89 1013.4
20220706083532 77 146 0.0 2.0 0.00 0.00 0.00 89 1013.3
20220706083040 77 134 0.0 2.0 0.00 0.00 0.00 88 1013.4
20220706082540 77 44 0.0 3.0 0.00 0.00 0.00 88 1013.5
20220706082047 77 172 0.0 2.0 0.00 0.00 0.00 88 1013.5
20220706081545 77 200 0.0 2.0 0.00 0.00 0.00 88 1013.5
20220706081055 77 121 0.0 2.0 0.00 0.00 0.00 88 1013.5
20220706080554 77 101 0.0 2.0 0.00 0.00 0.00 88 1013.6
20220706080004 77 184 0.0 4.0 0.00 0.00 0.00 88 1013.7
20220706075510 77 157 0.0 4.0 0.00 0.00 0.00 88 1013.7
20220706075016 77 136 0.0 1.0 0.00 0.00 0.00 88 1013.6
20220706074520 77 165 0.0 1.0 0.00 0.00 0.00 88 1013.7
20220706074028 77 219 0.0 1.0 0.00 0.00 0.00 88 1013.6
20220706073528 77 231 0.0 1.0 0.00 0.00 0.00 88 1013.5
20220706073044 77 177 0.0 1.0 0.00 0.00 0.00 88 1013.6
20220706072540 77 167 0.0 1.0 0.00 0.00 0.00 88 1013.6
20220706072053 77 200 0.0 1.0 0.00 0.00 0.00 88 1013.6
20220706071558 77 174 0.0 1.0 0.00 0.00 0.00 88 1013.6
20220706071004 77 114 0.0 0.0 0.00 0.00 0.00 88 1013.5
20220706070510 77 105 0.0 1.0 0.00 0.00 0.00 88 1013.6
20220706070020 77 162 0.0 1.0 0.00 0.00 0.00 88 1013.7
20220706065528 77 212 0.0 1.0 0.00 0.00 0.00 88 1013.7
20220706065032 78 211 0.0 1.0 0.00 0.00 0.00 87 1013.7
20220706064534 78 218 0.0 1.0 0.00 0.00 0.00 87 1013.7
20220706064047 78 143 0.0 1.0 0.00 0.00 0.00 87 1013.7
20220706063546 78 61 0.0 2.0 0.00 0.00 0.00 87 1013.7
20220706063115 78 212 0.0 2.0 0.00 0.00 0.00 86 1013.6
20220706062502 78 94 0.0 1.0 0.00 0.00 0.00 86 1013.7
20220706062012 78 94 0.0 1.0 0.00 0.00 0.00 85 1013.6
20220706061512 78 114 0.0 1.0 0.00 0.00 0.00 85 1013.5
20220706061022 78 100 0.0 5.0 0.00 0.00 0.00 85 1013.6
20220706060526 79 203 1.0 5.0 0.00 0.00 0.00 84 1013.6
20220706060037 79 106 0.0 2.0 0.00 0.00 0.00 84 1013.5
20220706055533 79 127 0.0 2.0 0.00 0.00 0.00 83 1013.5
20220706055046 79 96 0.0 3.0 0.00 0.00 0.00 83 1013.6
20220706054544 79 149 0.0 4.0 0.00 0.00 0.00 82 1013.6
20220706054054 80 197 0.0 4.0 0.00 0.00 0.00 82 1013.7
20220706053555 80 316 0.0 4.0 0.00 0.00 0.00 81 1013.7
20220706053502 80 257 0.0 4.0 0.00 0.00 0.00 81 1013.7
20220706053004 80 70 0.0 2.0 0.00 0.00 0.00 80 1013.8
20220706052512 80 128 0.0 3.0 0.00 0.00 0.00 80 1013.9
20220706052018 80 221 0.0 4.0 0.00 0.00 0.00 79 1013.8
20220706051530 80 237 0.0 4.0 0.00 0.00 0.00 79 1013.8
20220706051030 81 127 1.0 4.0 0.00 0.00 0.00 79 1013.6
20220706050546 81 108 1.0 4.0 0.00 0.00 0.00 78 1013.6
20220706050043 81 148 0.0 3.0 0.00 0.00 0.00 78 1013.5
20220706045538 81 70 0.0 3.0 0.00 0.00 0.00 77 1013.5
20220706045039 81 124 0.0 2.0 0.00 0.00 0.00 76 1013.5
20220706044545 82 118 0.0 4.0 0.00 0.00 0.00 76 1013.5
20220706044047 82 104 1.0 4.0 0.00 0.00 0.00 75 1013.4
20220706043555 82 70 0.0 6.0 0.00 0.00 0.00 75 1013.4
20220706043058 82 117 1.0 6.0 0.00 0.00 0.00 74 1013.5
20220706042510 83 169 0.0 5.0 0.00 0.00 0.00 73 1013.4
20220706042007 83 60 1.0 5.0 0.00 0.00 0.00 72 1013.2
20220706041518 83 276 1.0 5.0 0.00 0.00 0.00 72 1013.3
20220706041018 83 212 1.0 5.0 0.00 0.00 0.00 71 1013.4
20220706040526 83 120 2.0 5.0 0.00 0.00 0.00 71 1013.2
20220706040031 84 173 1.0 10.0 0.00 0.00 0.00 70 1012.9
20220706035536 84 242 1.0 10.0 0.00 0.00 0.00 69 1012.9
20220706035043 84 103 1.0 3.0 0.00 0.00 0.00 68 1012.9
20220706034552 84 108 0.0 3.0 0.00 0.00 0.00 67 1012.9
20220706034052 85 204 0.0 7.0 0.00 0.00 0.00 67 1012.9
20220706033605 85 240 2.0 7.0 0.00 0.00 0.00 66 1012.7
20220706033015 85 98 1.0 6.0 0.00 0.00 0.00 66 1012.6
20220706032515 85 163 0.0 5.0 0.00 0.00 0.00 65 1012.5
20220706032024 86 272 1.0 5.0 0.00 0.00 0.00 64 1012.5
20220706031530 86 224 2.0 4.0 0.00 0.00 0.00 63 1012.4
20220706031036 86 94 0.0 5.0 0.00 0.00 0.00 62 1012.3
20220706030540 87 135 1.0 6.0 0.00 0.00 0.00 62 1012.3
20220706030044 87 101 1.0 6.0 0.00 0.00 0.00 61 1012.2
20220706025552 87 191 1.0 6.0 0.00 0.00 0.00 61 1012.1
20220706025053 88 103 1.0 6.0 0.00 0.00 0.00 60 1012.0
20220706024502 88 219 1.0 4.0 0.00 0.00 0.00 59 1011.7
20220706024015 88 91 0.0 3.0 0.00 0.00 0.00 58 1011.7
20220706023516 88 133 1.0 7.0 0.00 0.00 0.00 58 1011.6
20220706023025 89 135 1.0 7.0 0.00 0.00 0.00 57 1011.5
20220706022526 89 111 2.0 7.0 0.00 0.00 0.00 57 1011.5
20220706022034 89 104 1.0 5.0 0.00 0.00 0.00 56 1011.4
20220706021536 89 111 2.0 5.0 0.00 0.00 0.00 56 1011.3
20220706021048 90 111 0.0 6.0 0.00 0.00 0.00 56 1011.4
20220706020548 90 98 1.0 4.0 0.00 0.00 0.00 55 1011.2
20220706020057 90 100 1.0 8.0 0.00 0.00 0.00 55 1011.1
20220706015556 91 200 2.0 8.0 0.00 0.00 0.00 54 1011.0
20220706015005 91 132 1.0 4.0 0.00 0.00 0.00 53 1010.9
20220706014504 91 127 1.0 5.0 0.00 0.00 0.00 52 1011.0
20220706014018 92 293 0.0 8.0 0.00 0.00 0.00 52 1011.0
20220706013520 92 137 2.0 9.0 0.00 0.00 0.00 51 1010.9
20220706013026 92 92 2.0 9.0 0.00 0.00 0.00 50 1011.0
20220706012531 93 99 1.0 5.0 0.00 0.00 0.00 50 1010.8
20220706004037 98 94 0.0 5.0 0.00 0.00 0.00 41 1010.1
20220706003543 98 79 1.0 6.0 0.00 0.00 0.00 41 1010.0
20220706003042 98 118 2.0 6.0 0.00 0.00 0.00 40 1010.0
20220706002550 98 113 1.0 7.0 0.00 0.00 0.00 40 1010.0
20220706002052 99 146 3.0 7.0 0.00 0.00 0.00 39 1010.1
20220706001507 99 109 0.0 4.0 0.00 0.00 0.00 39 1010.1
20220706001013 99 77 2.0 4.0 0.00 0.00 0.00 39 1010.1
20220706000516 99 200 1.0 5.0 0.00 0.00 0.00 39 1010.1
20220706000019 99 88 2.0 5.0 0.00 0.00 0.00 39 1010.0
20220705235520 99 96 1.0 4.0 0.00 0.00 0.00 39 1010.0
20220705235032 99 257 0.0 4.0 0.00 0.00 0.00 39 1010.0
20220705234533 100 120 1.0 4.0 0.00 0.00 0.00 37 1010.0
20220705234042 101 202 0.0 6.0 0.00 0.00 0.00 38 1010.1
20220705233544 101 157 1.0 6.0 0.00 0.00 0.00 37 1010.0
20220705233059 101 103 0.0 4.0 0.00 0.00 0.00 37 1010.0
20220705232554 102 336 0.0 3.0 0.00 0.00 0.00 37 1010.1
20220705232003 102 147 1.0 4.0 0.00 0.00 0.00 37 1010.1
20220705231506 102 190 0.0 4.0 0.00 0.00 0.00 36 1010.1
20220705231014 102 138 1.0 4.0 0.00 0.00 0.00 37 1010.2
20220705230516 102 207 0.0 3.0 0.00 0.00 0.00 37 1010.1
20220705230024 102 158 1.0 3.0 0.00 0.00 0.00 37 1010.3
20220705225528 102 158 1.0 3.0 0.00 0.00 0.00 37 1010.4
20220705225035 101 79 0.0 3.0 0.00 0.00 0.00 39 1010.5
20220705224539 101 121 1.0 4.0 0.00 0.00 0.00 37 1010.6
20220705224048 101 139 1.0 4.0 0.00 0.00 0.00 37 1010.7
20220705223550 101 290 1.0 6.0 0.00 0.00 0.00 37 1010.7
20220705223058 101 72 2.0 6.0 0.00 0.00 0.00 37 1010.8
20220705222502 101 220 1.0 4.0 0.00 0.00 0.00 38 1010.9
20220705222012 101 57 0.0 4.0 0.00 0.00 0.00 38 1010.8
20220705221514 101 195 1.0 4.0 0.00 0.00 0.00 37 1010.9
20220705221022 101 118 0.0 5.0 0.00 0.00 0.00 38 1010.9
20220705220525 101 112 1.0 5.0 0.00 0.00 0.00 37 1010.9
20220705220038 101 194 1.0 4.0 0.00 0.00 0.00 38 1011.0
20220705215536 101 131 0.0 4.0 0.00 0.00 0.00 41 1011.1
20220705215044 101 114 1.0 4.0 0.00 0.00 0.00 39 1011.2
20220705214547 101 125 1.0 4.0 0.00 0.00 0.00 38 1011.2
20220705214055 101 198 1.0 4.0 0.00 0.00 0.00 38 1011.4
20220705213559 101 199 0.0 1.0 0.00 0.00 0.00 38 1011.4
20220705213002 101 59 0.0 4.0 0.00 0.00 0.00 40 1011.5
20220705212510 101 148 1.0 7.0 0.00 0.00 0.00 40 1011.5
20220705212014 100 217 2.0 9.0 0.00 0.00 0.00 40 1011.6
20220705211514 100 255 2.0 9.0 0.00 0.00 0.00 41 1011.6
20220705211023 100 103 2.0 6.0 0.00 0.00 0.00 39 1011.7
20220705210526 100 6 1.0 6.0 0.00 0.00 0.00 41 1011.8
20220705210032 100 108 1.0 6.0 0.00 0.00 0.00 41 1011.9
20220705205532 99 292 1.0 5.0 0.00 0.00 0.00 41 1011.9
20220705205038 99 115 1.0 6.0 0.00 0.00 0.00 41 1011.9
20220705204543 99 107 2.0 6.0 0.00 0.00 0.00 41 1012.1
20220705204050 99 108 2.0 6.0 0.00 0.00 0.00 41 1012.1
20220705203550 100 234 0.0 4.0 0.00 0.00 0.00 43 1012.2
20220705203100 99 257 0.0 3.0 0.00 0.00 0.00 42 1012.2
20220705202508 99 264 0.0 6.0 0.00 0.00 0.00 42 1012.4
20220705202015 98 140 1.0 4.0 0.00 0.00 0.00 44 1012.5
20220705201517 98 197 0.0 8.0 0.00 0.00 0.00 46 1012.6
20220705201022 98 93 3.0 8.0 0.00 0.00 0.00 44 1012.6
20220705200526 99 54 2.0 8.0 0.00 0.00 0.00 43 1012.6
20220705200039 99 203 2.0 6.0 0.00 0.00 0.00 44 1012.7
20220705195538 99 118 0.0 10.0 0.00 0.00 0.00 44 1012.9
20220705195046 99 211 2.0 10.0 0.00 0.00 0.00 43 1012.9
20220705194548 100 72 1.0 5.0 0.00 0.00 0.00 44 1012.9
20220705194054 100 356 1.0 4.0 0.00 0.00 0.00 44 1013.1
20220705193559 99 134 1.0 4.0 0.00 0.00 0.00 44 1013.2
20220705193503 99 204 1.0 4.0 0.00 0.00 0.00 45 1013.2
20220705193003 98 58 1.0 4.0 0.00 0.00 0.00 45 1013.3
20220705192512 98 201 1.0 9.0 0.00 0.00 0.00 45 1013.3
20220705192014 98 124 1.0 9.0 0.00 0.00 0.00 46 1013.5
20220705191524 97 143 2.0 5.0 0.00 0.00 0.00 45 1013.5
20220705191026 98 117 1.0 4.0 0.00 0.00 0.00 45 1013.6
20220705190536 99 174 2.0 4.0 0.00 0.00 0.00 46 1013.7
20220705190036 99 93 0.0 3.0 0.00 0.00 0.00 46 1013.9
20220705185548 99 145 0.0 2.0 0.00 0.00 0.00 44 1014.0
20220705185052 98 122 0.0 4.0 0.00 0.00 0.00 46 1013.9
20220705184501 97 177 0.0 5.0 0.00 0.00 0.00 47 1014.1
20220705184007 97 169 1.0 5.0 0.00 0.00 0.00 48 1014.2
20220705183516 98 54 0.0 3.0 0.00 0.00 0.00 47 1014.0
20220705183018 98 172 0.0 2.0 0.00 0.00 0.00 47 1014.2
20220705182528 98 193 0.0 2.0 0.00 0.00 0.00 48 1014.3
20220705182032 98 72 0.0 2.0 0.00 0.00 0.00 47 1014.4
20220705181539 98 87 0.0 2.0 0.00 0.00 0.00 47 1014.4
20220705181040 97 144 0.0 1.0 0.00 0.00 0.00 48 1014.5
20220705180551 97 77 0.0 6.0 0.00 0.00 0.00 50 1014.5
20220705180052 97 90 0.0 6.0 0.00 0.00 0.00 48 1014.6
20220705175502 96 203 0.0 1.0 0.00 0.00 0.00 49 1014.7
20220705175004 96 77 0.0 2.0 0.00 0.00 0.00 51 1014.6
20220705174514 96 74 0.0 2.0 0.00 0.00 0.00 51 1014.7
20220705174012 96 70 0.0 4.0 0.00 0.00 0.00 52 1014.8
20220705173522 95 236 2.0 4.0 0.00 0.00 0.00 52 1014.8
20220705173026 95 72 1.0 3.0 0.00 0.00 0.00 52 1014.8
20220705172534 94 95 0.0 3.0 0.00 0.00 0.00 52 1014.9
20220705172036 94 165 0.0 4.0 0.00 0.00 0.00 53 1014.9
20220705171553 93 92 0.0 4.0 0.00 0.00 0.00 54 1015.0
20220705171049 93 93 0.0 5.0 0.00 0.00 0.00 54 1015.0
20220705170559 93 120 0.0 5.0 0.00 0.00 0.00 57 1015.0
20220705170058 92 124 0.0 5.0 0.00 0.00 0.00 56 1015.0
20220705165507 92 155 0.0 5.0 0.00 0.00 0.00 58 1015.1
20220705165009 91 108 0.0 1.0 0.00 0.00 0.00 59 1015.1
20220705164516 91 101 0.0 1.0 0.00 0.00 0.00 58 1015.1
20220705164023 91 166 0.0 1.0 0.00 0.00 0.00 60 1015.1
20220705163528 90 183 0.0 2.0 0.00 0.00 0.00 60 1015.0
20220705163034 90 204 0.0 5.0 0.00 0.00 0.00 61 1015.0
20220705162545 90 84 0.0 5.0 0.00 0.00 0.00 61 1015.1
20220705162054 90 79 0.0 1.0 0.00 0.00 0.00 61 1015.1
20220705161623 90 160 0.0 2.0 0.00 0.00 0.00 62 1015.2
20220705161503 90 99 0.0 2.0 0.00 0.00 0.00 62 1015.3
20220705161002 90 81 0.0 2.0 0.00 0.00 0.00 63 1015.3
20220705160510 90 167 0.0 1.0 0.00 0.00 0.00 62 1015.4
20220705160014 89 249 0.0 1.0 0.00 0.00 0.00 63 1015.3
20220705155522 89 179 0.0 1.0 0.00 0.00 0.00 62 1015.4
20220705155029 89 228 0.0 1.0 0.00 0.00 0.00 64 1015.4
20220705154532 88 165 0.0 2.0 0.00 0.00 0.00 65 1015.5
20220705154036 88 209 0.0 2.0 0.00 0.00 0.00 65 1015.4
20220705153549 87 219 0.0 3.0 0.00 0.00 0.00 66 1015.4